Regional Weather Roundup
Issued by NWS

Home | Current Version | Previous Version | Graphics & Text | Print | Product List | Glossary On
Versions: 1 2 3 4 5 6 7 8 9 10 11 12 13 14 15 16 17 18 19 20 21 22 23 24 25 26 27 28 29 30 31 32 33 34 35 36 37 38 39 40 41 42 43 44 45 46 47 48 49 50
000
ASUS43 KDTX 230210
RWRMI
MICHIGAN HOURLY REGIONAL WEATHER ROUNDUP
NATIONAL WEATHER SERVICE DETROIT/PONTIAC MI
1000 PM EDT MON MAY 22 2017

NOTE: "FAIR" INDICATES FEW OR NO CLOUDS BELOW 12,000 FEET WITH NO
SIGNIFICANT WEATHER AND/OR OBSTRUCTION TO VISIBILITY.

MIZ047>049-052>055-059>063-066>070-074>076-081>083-230300-
SOUTHEAST LOWER MICHIGAN

CITY           SKY/WX    TMP DP  RH WIND       PRES   REMARKS
ADRIAN         CLEAR     61  47  59 SW6       29.99R
ALMA           CLOUDY    60  49  67 CALM      29.91S
ANN ARBOR      CLEAR     58  48  69 S6        29.97R
BAD AXE        CLOUDY    58  45  62 SW6       29.94R
CARO           CLOUDY    60  47  64 CALM      29.92F
DETROIT CITY   CLEAR     63  47  55 SW6       29.98R
DETROIT        MOCLDY    61  48  62 S7        29.98R
FLINT          CLOUDY    60  47  61 S6        29.94S
GROSSE ILE     CLEAR     63  47  55 SW3       29.97S
HILLSDALE      CLOUDY    59  46  63 S5        29.98S
HOWELL         PTCLDY    60  45  57 S7        29.96R

CITY           SKY/WX    TMP DP  RH WIND       PRES   REMARKS
JACKSON        PTCLDY    62  47  57 S8        29.96S
LAMBERTVILLE   CLEAR     58  49  73 CALM      29.99S
LANSING        PTCLDY    60  45  57 S8        29.94S
LAPEER         CLOUDY    60  47  61 S5        29.95S
MASON          PTCLDY    61  49  64 S3        29.95S
MONROE         CLEAR     60  47  63 S5        29.98S
MT. CLEMENS    PTCLDY    58  49  72 S6        29.95R
PONTIAC        PTCLDY    61  46  57 S6        29.96R
PORT HOPE        N/A     60  45  57 SW6       29.91R
PORT HURON     MOCLDY    55  46  71 CALM      29.97R
TRI CITIES     CLOUDY    61  49  64 S5        29.92S
MIDLAND        CLOUDY    61  46  56 CALM      29.91R
TROY           CLEAR     64  43  45 S5        29.99R
SAGINAW HB     CLOUDY    61  45  55 S5        29.92S
$$
MIZ043>046-050>051-056>058-064>065-071>073-077>080-230300-
SOUTHWEST LOWER MICHIGAN

CITY           SKY/WX    TMP DP  RH WIND       PRES   REMARKS
BATTLE CREEK   CLOUDY    65  48  54 S13       29.95R
BENTON HARBOR  CLOUDY    68  45  43 S10       29.92R
BIG RAPIDS     MOCLDY    53  50  90 S8        29.89S
COLDWATER      CLOUDY    64  46  53 S7        29.97S
FREMONT        CLOUDY    55  54  96 N8        29.89R
HOLLAND        CLOUDY    65  46  50 SW14      29.90S
GRAND RAPIDS   MOCLDY    61  50  67 S8        29.90S
IONIA          CLOUDY    60  49  67 S7        29.91R
KALAMAZOO      CLOUDY    66  45  46 S15       29.94S
LUDINGTON      CLOUDY    55  49  80 S6        29.86S
MARSHALL       CLOUDY    64  47  54 S7        29.95R
MOUNT PLEASANT LGT RAIN  58  49  72 CALM      29.90S
MUSKEGON       CLOUDY    63  44  50 SW10      29.88S
SOUTH HAVEN    CLOUDY    67  47  48 SW6       29.92S
$$
MIZ016>042-230300-
NORTHERN LOWER MICHIGAN

CITY           SKY/WX    TMP DP  RH WIND       PRES   REMARKS
ALPENA         CLEAR     49  45  86 SE5       29.87S
BEAVER ISLAND  CLOUDY    46  44  94 SW3       29.85S
BELLAIRE       CLOUDY    59  44  57 CALM      29.85R
CADILLAC       PTCLDY    55  45  70 S8        29.87R
CHARLEVOIX     LGT RAIN  51  50  96 SW10      29.89S
FRANKFORT      PTCLDY    59  45  58 S10G16    29.84R
GAYLORD        PTCLDY    56  42  59 SW7       29.84S
GRAYLING       PTCLDY    58  44  59 S6        29.87R
HARBOR SPRINGS HVY RAIN  51  51  99 W7        29.89R
HOUGHTON LAKE  CLEAR     58  45  62 SW10      29.88S
MANISTEE       MOCLDY    58  47  66 S7        29.84F
OSCODA         CLEAR     58  40  51 SW8       29.88S
PELLSTON       HVY RAIN  50  48  93 W8        29.89R FOG
ROGERS CITY    CLOUDY    53  45  74 CALM      29.86S
TRAVERSE CITY  PTCLDY    60  45  57 SW3       29.83R
$$
MIZ007>008-015-230300-
EASTERN UPPER MICHIGAN

CITY           SKY/WX    TMP DP  RH WIND       PRES   REMARKS
KINROSS        CLOUDY    49  46  90 E3        29.86R
MACKINAC ISLAN MIX PCPN  48  46  94 SW7       29.86R
NEWBERRY       CLOUDY    48  46  91 CALM      29.82F
S. S. MARIE    CLOUDY    50  47  89 NE3       29.85S
MUNISING         N/A     46  45  96 E6        29.84R
$$
MIZ004>006-011>014-085-230300-
CENTRAL UPPER MICHIGAN

CITY           SKY/WX    TMP DP  RH WIND       PRES   REMARKS
MANISTIQUE     CLOUDY    44  41  89 CALM      29.82F FOG
ESCANABA       FOG       45  45 100 CALM      29.84S VSB 3/4
MENOMINEE      CLOUDY    50  48  93 CALM      29.85R
SAWYER-GWINN   MOCLDY    46  43  87 CALM      29.84S
$$
MIZ001>003-009>011-084-230300-
WESTERN UPPER MICHIGAN

CITY           SKY/WX    TMP DP  RH WIND       PRES   REMARKS
IRON MOUNTAIN  CLEAR     48  40  73 N5        29.83R
HOUGHTON       CLOUDY    50  41  71 W7        29.81R
COPPER HARBOR    N/A     51  43  74 W3        29.80R
IRONWOOD       CLOUDY    51  44  77 S3        29.84R
$$

ABBREVIATIONS USED IN REMARKS
   TC - TEMPERATURE IN CELSIUS
  WCI - WIND CHILL INDEX
   HX - HEAT INDEX
  VSB - VISIBILITY





USA.gov is the U.S. government's official web portal to all federal, state and local government web resources and services.